x

Buoy A01 - Mass. Bay/stellwagen (44029) Wave Buoy

11:04 - Tue 22nd Aug 2017 All times are EDT. -4 hours from GMT.

  • Sig Wave height 1.0ft
  • Peak Period 3s
  • Wind
    9mph, 9mph gusts
  • Sea Temp 65°f
  • Ar Temp 69°f
  • Sea Pressure 1013.8mb
  • Buoy A01 - Mass. Bay/stellwagen
  • Buoy A01 - Mass. Bay/stellwagen

More Historic Weather Station data

Upgrade to MSW Pro to gain access to the past 30 days of data for over 8000 Wavebouys and Weather Stations around the globe.

Join

Comparision Forecast

View Surf forecast
   
Ter 08/22 11:04 1ft 3s 9 9 mph 1013.8mb 65f 69f
10:04 1ft 6s 11 11 mph 1014.3mb 65f 69f
9:04 1.3ft 8s 9 11 mph 1014.9mb 65f 68f
8:04 1ft 5s 9 9 mph 1015.2mb 65f 68f
7:04 0.7ft  -  11 11 mph 1015.6mb 65f 68f
6:04 1ft 8s 9 9 mph 1015.6mb 64f 68f
5:04 0.7ft  -  9 11 mph 1015.5mb 66f 68f
4:04 0.7ft  -  11 13 mph 1015.6mb 66f 69f
3:04 1ft 3s 7 9 mph 1016.2mb 66f 69f
2:04 1.3ft 3s 9 9 mph 1016.6mb 67f 70f
1:04 1.3ft 6s 9 9 mph 1016.6mb 67f 70f
12:04 1.3ft 5s 11 13 mph 1016.8mb 67f 71f
Seg 08/21 11:04 1ft 5s 11 13 mph 1017mb 67f 71f
10:04 1ft 8s 11 13 mph 1017.1mb 67f 72f
9:04 1ft 6s 9 9 mph 1017.3mb 68f 71f
8:04 1ft 6s 4 4 mph 1017.2mb 68f 71f
7:04 1.3ft 6s 7 7 mph 1017.5mb 67f 72f
6:04 1ft 8s 7 9 mph 1017.3mb 67f 72f
5:04 1ft 6s 9 9 mph 1017.8mb 67f 71f
4:04 1.3ft 8s 11 13 mph 1017.8mb 67f 71f
3:04 1ft 8s 9 11 mph 1017.9mb 66f 71f
2:04 1ft 8s 7 9 mph 1018.6mb 66f 72f
1:04 1.3ft 5s 7 7 mph 1019.2mb 66f 72f
11:04 1.3ft 6s 7 9 mph 1019.7mb 67f 69f
10:04 1.3ft 5s 7 7 mph 1019.8mb 67f 68f
9:04 1.3ft 5s 4 7 mph 1020.1mb 67f 66f
8:04 1.3ft 6s 9 11 mph 1020.6mb 67f 66f
7:04 1.3ft 8s 9 11 mph 1020.4mb 67f 66f
6:04 1.3ft 6s 9 11 mph 1020.1mb 67f 66f
5:04 1ft 8s 11 13 mph 1019.6mb 67f 67f
4:04 1ft 6s 9 11 mph 1019.2mb 67f 67f
3:04 1.3ft 8s 9 9 mph 1018.7mb 67f 68f
2:04 1.3ft 8s 7 9 mph 1018.8mb 67f 69f
1:04 1.3ft 8s 7 9 mph 1018.7mb 67f 69f
12:04 1.3ft 6s 7 9 mph 1018.1mb 67f 69f
Dom 08/20 11:04 1.6ft 6s 4 4 mph 1017.6mb 67f 69f
10:04 1.6ft 5s 4 7 mph 1017.4mb 67f 70f
9:04 2ft 6s 7 7 mph 1016.7mb 67f 70f
8:04 2ft 6s 7 9 mph 1015.9mb 67f 71f
7:04 2ft 6s 11 11 mph 1015.6mb 67f 72f
6:04 1.6ft 6s 9 11 mph 1015mb 67f 73f
5:04 1.6ft 6s 9 13 mph 1014.8mb 67f 73f
4:04 1.6ft 6s 9 9 mph 1014.2mb 66f 73f
3:04 1.6ft 8s 7 9 mph 1014mb 67f 72f
2:04 1.6ft 8s 4 4 mph 1013.8mb 67f 72f
1:04 2ft 8s 4 4 mph 1013.4mb 67f 73f
12:04 1.6ft 6s 4 9 mph 1013mb 67f 71f
11:04 2ft 5s 7 9 mph 1012.6mb 67f 71f
10:04 2ft 8s 7 9 mph 1012.2mb 67f 70f
9:04 2ft 6s 7 9 mph 1012.2mb 67f 68f
8:04 2ft 6s 9 11 mph 1012mb 66f 67f
7:04 2ft 6s 9 9 mph 1011.3mb 66f 67f
6:04 2ft 6s 9 9 mph 1010.7mb 66f 67f
5:04 1.6ft 6s 7 7 mph 1010.2mb 66f 67f
4:04 1.6ft 6s 4 4 mph 1009.7mb 66f 67f
3:04 1.6ft 6s 4 7 mph 1009.6mb 66f 67f
2:04 1.3ft 8s 4 4 mph 1009.6mb 66f 67f
12:04 1.6ft 5s 7 7 mph 1009.7mb 67f 68f
Sáb 08/19 11:04 1.6ft 5s 7 7 mph 1009.3mb 67f 67f
10:04 2ft 6s 4 4 mph 1009.1mb 67f 67f
9:04 1.6ft 6s 7 9 mph 1008.8mb 67f 67f
8:04 1.6ft 8s 7 9 mph 1008.4mb 67f 67f
7:04 2ft 6s 7 9 mph 1008.2mb 67f 68f
6:04 1.6ft 5s 7 9 mph 1008mb 67f 67f
5:04 1.6ft 6s 11 13 mph 1008.2mb 67f 66f
4:04 1.6ft 8s 9 11 mph 1008.3mb 67f 66f
3:04 1.6ft 4s 9 11 mph 1008.3mb 67f 65f
2:04 1.6ft 5s 7 9 mph 1008.8mb 66f 65f
1:04 1.6ft 6s 4 4 mph 1009.1mb 66f 64f
12:04 1.6ft 4s 2 4 mph 1009mb 66f 64f
11:04 2.5ft 5s 7 9 mph 1009.2mb 66f 64f
10:04 2.5ft 4s 11 11 mph 1008.8mb 66f 63f
9:04 3ft 6s 11 22 mph 1008.5mb 65f 63f
8:04 3ft 5s 16 18 mph 1008.3mb 65f 63f
7:04 2.5ft 6s 13 16 mph 1008.1mb 65f 63f
6:04 2.5ft 6s 13 16 mph 1007.5mb 65f 64f
5:04 3ft 5s 13 16 mph 1007.1mb 66f 64f
4:04 2.5ft 6s 9 11 mph 1006.9mb 66f 65f
3:04 2.5ft 6s 9 11 mph 1006.8mb 66f 69f
2:04 2.5ft 6s 11 11 mph 1007.2mb 66f 69f
1:04 2.5ft 5s 9 9 mph 1007.3mb 66f 69f
12:04 3ft 5s 11 13 mph 1008.7mb 66f 69f
Sex 08/18 11:04 3ft 5s 16 18 mph 1008.4mb 66f 69f
10:04 3ft 5s 18 20 mph 1008.5mb 66f 69f
9:04 2.5ft 5s 18 22 mph 1008.7mb 66f 69f
8:04 3ft 5s 18 20 mph 1008.8mb 66f 70f
7:04 2.5ft 5s 16 18 mph 1009.3mb 67f 70f
6:04 3ft 5s 16 18 mph 1009.3mb 66f 70f
5:04 2.5ft 4s 11 16 mph 1009.8mb 66f 69f